Location: Helsinki
(60.1699°N, 24.9384°E)
Time: 22:54:47
(UTC+02:00)

Altair - Pass Details

Date: 29 October 2020
Orbit: 1502 x 1682 km, 47.2° (Epoch: 25 November)

Event Time Altitude Azimuth Distance (km) Brightness Sun altitude
Rises 05:31:11 0° 213° (SSW) 4,654 9.7 -15.8°
Reaches altitude 10° 05:34:46 10° 202° (SSW) 3,692 9.3 -15.4°
Maximum altitude 05:42:03 27° 150° (SSE) 2,659 9.1 -14.5°
Drops below altitude 10° 05:49:33 10° 98° (E) 3,804 11.0 -13.5°
Sets 05:53:17 0° 87° (E) 4,821 12.1 -13.1°
